This is the latest recevied weather packets stored in our database for station/object SR6NWB-11. If no packets are shown the sender has not sent any weather packets the latest 10 day(s).
| Time | Temp. | Humidity | Pressure | Rain* | Wind** | Luminosity | Snow |
|---|---|---|---|---|---|---|---|
| 1777635786 | 16.67° C | 34% | 1030.6 hPa | 0 mm | - | - | - |
| 1777635281 | 16.11° C | 34% | 1030.6 hPa | 0 mm | - | - | - |
| 1777634726 | 16.11° C | 34% | 1030.6 hPa | 0 mm | - | - | - |
| 1777634166 | 15.56° C | 34% | 1030.6 hPa | 0 mm | - | - | - |
| 1777633591 | 15.56° C | 34% | 1030.7 hPa | 0 mm | - | - | - |
| 1777632996 | 15.56° C | 34% | 1030.8 hPa | 0 mm | - | - | - |
| 1777632506 | 15.56° C | 35% | 1030.8 hPa | 0 mm | - | - | - |
| 1777631966 | 15° C | 35% | 1030.9 hPa | 0 mm | - | - | - |
| 1777631391 | 15° C | 36% | 1030.8 hPa | 0 mm | - | - | - |
| 1777630885 | 14.44° C | 35% | 1030.7 hPa | 0 mm | - | - | - |
| 1777630361 | 14.44° C | 35% | 1030.7 hPa | 0 mm | - | - | - |
| 1777629836 | 14.44° C | 36% | 1030.9 hPa | 0 mm | - | - | - |
| 1777629326 | 14.44° C | 36% | 1030.8 hPa | 0 mm | - | - | - |
| 1777628746 | 13.89° C | 36% | 1030.8 hPa | 0 mm | - | - | - |
| 1777628181 | 13.89° C | 37% | 1030.9 hPa | 0 mm | - | - | - |
| 1777627676 | 13.89° C | 37% | 1030.9 hPa | 0 mm | - | - | - |
| 1777627121 | 13.89° C | 37% | 1030.9 hPa | 0 mm | - | - | - |
| 1777626536 | 13.33° C | 37% | 1030.9 hPa | 0 mm | - | - | - |
| 1777626046 | 13.33° C | 38% | 1030.9 hPa | 0 mm | - | - | - |
| 1777625511 | 12.78° C | 38% | 1030.9 hPa | 0 mm | - | - | - |
| 1777624941 | 12.78° C | 38% | 1031 hPa | 0 mm | - | - | - |
| 1777624381 | 12.78° C | 39% | 1030.9 hPa | 0 mm | - | - | - |
| 1777623886 | 12.22° C | 39% | 1030.8 hPa | 0 mm | - | - | - |
| 1777623331 | 12.22° C | 40% | 1030.8 hPa | 0 mm | - | - | - |
| 1777622766 | 11.67° C | 40% | 1030.8 hPa | 0 mm | - | - | - |
* Rain latest hour (hover to see other rain measurements)
** Current wind speed in m/s (hover to see current wind gust speed)